BINAR-3

Last updated on Tue Nov 05 2024 00:02:08 GMT+0000 (Coordinated Universal Time)

1 60957U 98067WX 24309.45484930 .05607937 11869-4 29407-2 0 9992 2 60957 51.6050 331.5328 0007457 57.2016 302.9719 16.19364361 12504

Satellite not in orbit